Date,TemperatureHighF,TemperatureAvgF,TemperatureLowF,DewpointHighF,DewpointAvgF,DewpointLowF,HumidityHigh,HumidityAvg,HumidityLow,PressureMaxIn,PressureMinIn,WindSpeedMaxMPH,WindSpeedAvgMPH,GustSpeedMaxMPH,PrecipitationSumIn
2013-5-1,61.3,59.2,58.1,57.9,56.6,55.5,95,91,86,30.34,30.18,19,6,19,0.00
2013-5-2,64.1,59.2,56.3,58.2,56.0,52.7,95,89,80,30.35,30.28,25,6,25,0.00
2013-5-3,69.5,58.9,51.1,55.3,50.5,43.7,93,75,52,30.29,30.19,24,8,24,0.00
2013-5-4,64.7,55.8,49.9,53.3,49.0,44.2,89,78,62,30.23,30.09,25,10,25,0.00
2013-5-5,60.9,55.9,50.3,57.0,52.1,46.9,91,87,82,30.12,30.00,24,10,26,0.00
2013-5-6,73.0,59.4,56.9,65.7,57.2,54.1,96,92,73,30.03,29.85,21,7,22,1.06
2013-5-7,71.6,60.1,52.4,58.3,52.4,47.6,97,78,44,29.98,29.88,13,2,14,0.00
2013-5-8,55.6,54.7,53.7,52.1,51.8,51.3,93,90,88,29.99,29.96,0,0,0,0.00
2013-5-13,54.2,53.3,51.9,42.9,41.1,40.1,69,63,59,30.20,30.18,3,1,4,0.00
2013-5-14,72.1,58.8,42.3,44.6,39.7,32.7,89,53,30,30.30,30.12,11,2,18,0.00
2013-5-15,88.2,70.1,55.1,63.3,54.5,42.7,82,60,39,30.12,29.93,11,3,15,0.25
2013-5-16,84.9,75.9,68.2,63.7,60.8,55.9,77,61,39,30.01,29.92,18,3,18,0.00
2013-5-17,89.5,77.4,66.3,65.9,62.4,58.3,89,63,38,30.10,30.00,9,2,9,0.00
2013-5-18,81.5,72.5,65.1,69.7,64.6,59.4,94,77,52,30.18,30.09,14,2,14,0.09
2013-5-19,79.4,70.6,67.0,70.4,67.0,65.2,97,89,67,30.18,30.08,16,1,16,0.35
2013-5-20,77.8,71.1,67.6,71.0,68.2,66.4,97,91,77,30.15,30.06,13,2,13,0.38
2013-5-21,83.6,73.3,68.6,74.3,69.2,67.1,96,88,66,30.08,29.98,11,2,11,0.13
2013-5-22,85.2,72.2,67.5,69.9,67.4,64.8,96,86,55,30.06,29.94,16,3,16,0.00
2013-5-23,81.3,72.1,68.9,71.5,68.4,66.2,96,89,65,29.99,29.85,13,2,13,0.51
2013-5-24,71.4,65.6,63.0,67.8,62.6,58.6,96,91,65,29.97,29.83,12,2,12,0.00
2013-5-25,66.6,61.0,57.5,52.9,50.2,43.8,81,68,55,30.23,30.18,2,0,3,0.00
2013-5-26,74.9,62.7,53.8,53.2,46.1,40.5,77,56,36,30.32,30.21,9,2,15,0.00
2013-5-27,81.8,66.3,54.2,58.0,51.4,45.9,87,62,32,30.32,30.19,10,1,17,0.00
2013-5-28,85.3,73.3,61.3,67.5,63.0,57.9,92,72,50,30.29,30.17,13,2,13,0.00
2013-5-29,86.5,75.1,64.0,66.0,64.1,61.9,94,71,48,30.28,30.18,12,2,12,0.00
2013-5-30,88.2,76.1,64.0,68.8,64.2,59.3,94,69,44,30.30,30.20,12,2,12,0.00
2013-5-31,88.7,77.6,66.9,69.8,66.9,63.8,95,72,47,30.25,30.12,13,2,13,0.00